Tracking 29510 objects as of 15-Sep-2024
HD Live streaming from Space Station
objects crossing your sky now

KOREASAT 116

Track KOREASAT 116 now!


NORAD ID: 45920
Int'l Code: 2020-048A
Perigee: 35,788.5 km
Apogee: 35,797.8 km
Inclination: 0.0 °
Period: 1,436.1 minutes
Semi major axis: 42164 km
RCS: Unknown
Launch date: July 20, 2020
Source: United States (US)
Launch site: AIR FORCE EASTERN TEST RANGE (AFETR)
Your satellite tracking list
Your tracking list is empty




NASA's NSSDC Master Catalog

Two Line Element Set (TLE):
1 45920U 20048A   24258.87896668 -.00000367  00000-0  00000+0 0  9999
2 45920   0.0249 266.6605 0001103 253.9006 266.4062  1.00273844 15212
Source of the keplerian elements: AFSPC